Time,TemperatureF,DewpointF,PressureIn,WindDirection,WindDirectionDegrees,WindSpeedMPH,WindSpeedGustMPH,Humidity,HourlyPrecipIn,Conditions,Clouds,dailyrainin,SolarRadiationWatts/m^2,SoftwareType,DateUTC
2013-05-31 00:02:00,65.0,64.0,-100.00,ESE,116,5.0,12.0,97,0.23,,,0.83,0.000000,,2013-05-31 05:02:00,
2013-05-31 00:12:00,63.0,62.0,-100.00,SE,124,4.0,9.0,97,0.00,,,0.83,0.000000,,2013-05-31 05:12:00,
2013-05-31 00:32:00,63.0,62.0,-100.00,SE,124,4.0,9.0,97,0.00,,,0.83,0.000000,,2013-05-31 05:32:00,
2013-05-31 00:42:00,63.0,62.0,-100.00,SE,124,4.0,9.0,97,0.00,,,0.83,0.000000,,2013-05-31 05:42:00,
2013-05-31 00:52:00,63.0,62.0,-100.00,SE,124,4.0,9.0,97,0.00,,,0.83,0.000000,,2013-05-31 05:52:00,
2013-05-31 01:02:00,63.0,62.0,-100.00,SE,124,4.0,9.0,97,0.00,,,0.83,0.000000,,2013-05-31 06:02:00,
2013-05-31 01:32:00,63.0,62.0,-100.00,SE,139,4.0,9.0,96,0.00,,,0.83,0.000000,,2013-05-31 06:32:00,
2013-05-31 01:42:00,63.0,62.0,-100.00,SE,139,4.0,9.0,96,0.00,,,0.83,0.000000,,2013-05-31 06:42:00,
2013-05-31 01:52:00,63.0,62.0,-100.00,SE,139,4.0,9.0,96,0.00,,,0.83,0.000000,,2013-05-31 06:52:00,
2013-05-31 02:02:00,63.0,62.0,-100.00,SE,139,4.0,9.0,96,0.00,,,0.83,0.000000,,2013-05-31 07:02:00,
2013-05-31 02:11:00,63.0,62.0,-100.00,SE,139,4.0,9.0,96,0.00,,,0.83,0.000000,,2013-05-31 07:11:00,
2013-05-31 02:32:00,62.0,61.0,-100.00,South,171,4.0,10.0,97,0.00,,,0.83,0.000000,,2013-05-31 07:32:00,
2013-05-31 02:42:00,62.0,61.0,-100.00,South,171,4.0,10.0,97,0.00,,,0.83,0.000000,,2013-05-31 07:42:00,
2013-05-31 02:52:00,62.0,61.0,-100.00,South,171,4.0,10.0,97,0.00,,,0.83,0.000000,,2013-05-31 07:52:00,
2013-05-31 03:02:00,62.0,61.0,-100.00,South,171,4.0,10.0,97,0.00,,,0.83,0.000000,,2013-05-31 08:02:00,
2013-05-31 03:11:00,62.0,61.0,-100.00,South,171,4.0,10.0,97,0.00,,,0.83,0.000000,,2013-05-31 08:11:00,
2013-05-31 03:32:00,61.0,60.0,-100.00,SE,145,3.0,8.0,97,0.00,,,0.83,0.000000,,2013-05-31 08:32:00,
2013-05-31 03:42:00,61.0,60.0,-100.00,SE,145,3.0,8.0,97,0.00,,,0.83,0.000000,,2013-05-31 08:42:00,
2013-05-31 03:52:00,61.0,60.0,-100.00,SE,145,3.0,8.0,97,0.00,,,0.83,0.000000,,2013-05-31 08:52:00,
2013-05-31 04:01:00,61.0,60.0,-100.00,SE,145,3.0,8.0,97,0.00,,,0.83,0.000000,,2013-05-31 09:01:00,
2013-05-31 04:11:00,61.0,60.0,-100.00,SE,145,3.0,8.0,97,0.00,,,0.83,0.000000,,2013-05-31 09:11:00,
2013-05-31 04:12:00,60.0,59.0,-100.00,SSE,155,4.0,8.0,98,0.00,,,0.83,0.000000,,2013-05-31 09:12:00,
2013-05-31 04:32:00,60.0,59.0,-100.00,SSE,155,4.0,8.0,98,0.00,,,0.83,0.000000,,2013-05-31 09:32:00,
2013-05-31 04:43:00,60.0,59.0,-100.00,SSE,155,4.0,8.0,98,0.00,,,0.83,0.000000,,2013-05-31 09:43:00,
2013-05-31 04:53:00,60.0,59.0,-100.00,SSE,155,4.0,8.0,98,0.00,,,0.83,0.000000,,2013-05-31 09:53:00,
2013-05-31 05:02:00,60.0,59.0,-100.00,SSE,155,4.0,8.0,98,0.00,,,0.83,0.000000,,2013-05-31 10:02:00,
2013-05-31 05:33:00,61.0,60.0,-100.00,South,187,5.0,10.0,95,0.00,,,0.83,0.000000,,2013-05-31 10:33:00,
2013-05-31 05:42:00,61.0,60.0,-100.00,South,187,5.0,10.0,95,0.00,,,0.83,0.000000,,2013-05-31 10:42:00,
2013-05-31 05:52:00,61.0,60.0,-100.00,South,187,5.0,10.0,95,0.00,,,0.83,0.000000,,2013-05-31 10:52:00,
2013-05-31 06:02:00,61.0,60.0,-100.00,South,187,5.0,10.0,95,0.00,,,0.83,0.000000,,2013-05-31 11:02:00,
2013-05-31 06:11:00,61.0,60.0,-100.00,South,187,5.0,10.0,95,0.00,,,0.83,0.000000,,2013-05-31 11:11:00,
2013-05-31 06:32:00,62.0,61.0,-100.00,South,189,5.0,10.0,95,0.00,,,0.83,32.000000,,2013-05-31 11:32:00,
2013-05-31 06:42:00,62.0,61.0,-100.00,South,189,5.0,10.0,95,0.00,,,0.83,32.000000,,2013-05-31 11:42:00,
2013-05-31 06:52:00,62.0,61.0,-100.00,South,189,5.0,10.0,95,0.00,,,0.83,32.000000,,2013-05-31 11:52:00,
2013-05-31 07:01:00,62.0,61.0,-100.00,South,189,5.0,10.0,95,0.00,,,0.83,32.000000,,2013-05-31 12:01:00,
2013-05-31 07:11:00,62.0,61.0,-100.00,South,189,5.0,10.0,95,0.00,,,0.83,32.000000,,2013-05-31 12:11:00,
2013-05-31 07:32:00,62.0,60.0,-100.00,SSW,203,5.0,11.0,94,0.00,,,0.83,54.000000,,2013-05-31 12:32:00,
2013-05-31 07:42:00,62.0,60.0,-100.00,SSW,203,5.0,11.0,94,0.00,,,0.83,54.000000,,2013-05-31 12:42:00,
2013-05-31 07:52:00,62.0,60.0,-100.00,SSW,203,5.0,11.0,94,0.00,,,0.83,54.000000,,2013-05-31 12:52:00,
2013-05-31 08:01:00,62.0,60.0,-100.00,SSW,203,5.0,11.0,94,0.00,,,0.83,54.000000,,2013-05-31 13:01:00,
2013-05-31 08:11:00,62.0,60.0,-100.00,SSW,203,5.0,11.0,94,0.00,,,0.83,54.000000,,2013-05-31 13:11:00,
2013-05-31 08:32:00,64.0,62.0,-100.00,SSW,204,5.0,9.0,93,0.00,,,0.83,106.000000,,2013-05-31 13:32:00,
2013-05-31 08:42:00,64.0,62.0,-100.00,SSW,204,5.0,9.0,93,0.00,,,0.83,106.000000,,2013-05-31 13:42:00,
2013-05-31 08:52:00,64.0,62.0,-100.00,SSW,204,5.0,9.0,93,0.00,,,0.83,106.000000,,2013-05-31 13:52:00,
2013-05-31 09:02:00,64.0,62.0,-100.00,SSW,204,5.0,9.0,93,0.00,,,0.83,106.000000,,2013-05-31 14:02:00,
2013-05-31 09:11:00,64.0,62.0,-100.00,SSW,204,5.0,9.0,93,0.00,,,0.83,106.000000,,2013-05-31 14:11:00,
2013-05-31 09:32:00,65.0,62.0,-100.00,SSW,198,5.0,11.0,91,0.00,,,-99.99,141.000000,,2013-05-31 14:32:00,
2013-05-31 09:42:00,65.0,62.0,-100.00,SSW,198,5.0,11.0,91,0.00,,,-99.99,141.000000,,2013-05-31 14:42:00,
2013-05-31 09:52:00,65.0,62.0,-100.00,SSW,198,5.0,11.0,91,0.00,,,-99.99,141.000000,,2013-05-31 14:52:00,
2013-05-31 10:01:00,65.0,62.0,-100.00,SSW,198,5.0,11.0,91,0.00,,,-99.99,141.000000,,2013-05-31 15:01:00,
2013-05-31 10:11:00,65.0,62.0,-100.00,SSW,198,5.0,11.0,91,0.00,,,-99.99,141.000000,,2013-05-31 15:11:00,
2013-05-31 10:12:00,67.0,61.0,-100.00,SSW,207,8.0,15.0,81,0.00,,,0.83,415.000000,,2013-05-31 15:12:00,
2013-05-31 10:33:00,67.0,61.0,-100.00,SSW,207,8.0,15.0,81,0.00,,,0.83,415.000000,,2013-05-31 15:33:00,
2013-05-31 10:43:00,67.0,61.0,-100.00,SSW,207,8.0,15.0,81,0.00,,,0.83,415.000000,,2013-05-31 15:43:00,
2013-05-31 10:53:00,67.0,61.0,-100.00,SSW,207,8.0,15.0,81,0.00,,,0.83,415.000000,,2013-05-31 15:53:00,
2013-05-31 11:03:00,67.0,61.0,-100.00,SSW,207,8.0,15.0,81,0.00,,,0.83,415.000000,,2013-05-31 16:03:00,
2013-05-31 11:12:00,71.0,62.0,-100.00,SSW,204,8.0,16.0,73,0.00,,,0.83,553.000000,,2013-05-31 16:12:00,
2013-05-31 11:33:00,71.0,62.0,-100.00,SSW,204,8.0,16.0,73,0.00,,,0.83,553.000000,,2013-05-31 16:33:00,
2013-05-31 11:42:00,71.0,62.0,-100.00,SSW,204,8.0,16.0,73,0.00,,,0.83,553.000000,,2013-05-31 16:42:00,
2013-05-31 11:52:00,71.0,62.0,-100.00,SSW,204,8.0,16.0,73,0.00,,,0.83,553.000000,,2013-05-31 16:52:00,
2013-05-31 12:02:00,71.0,62.0,-100.00,SSW,204,8.0,16.0,73,0.00,,,0.83,553.000000,,2013-05-31 17:02:00,
2013-05-31 12:32:00,74.0,61.0,-100.00,SW,221,11.0,20.0,64,0.00,,,0.83,627.000000,,2013-05-31 17:32:00,
2013-05-31 12:42:00,74.0,61.0,-100.00,SW,221,11.0,20.0,64,0.00,,,0.83,627.000000,,2013-05-31 17:42:00,
2013-05-31 12:52:00,74.0,61.0,-100.00,SW,221,11.0,20.0,64,0.00,,,0.83,627.000000,,2013-05-31 17:52:00,
2013-05-31 13:02:00,74.0,61.0,-100.00,SW,221,11.0,20.0,64,0.00,,,0.83,627.000000,,2013-05-31 18:02:00,
2013-05-31 13:11:00,74.0,61.0,-100.00,SW,221,11.0,20.0,64,0.00,,,0.83,627.000000,,2013-05-31 18:11:00,
2013-05-31 13:32:00,76.0,59.0,-100.00,SW,221,10.0,17.0,55,0.00,,,0.83,1031.000000,,2013-05-31 18:32:00,
2013-05-31 13:42:00,76.0,59.0,-100.00,SW,221,10.0,17.0,55,0.00,,,0.83,1031.000000,,2013-05-31 18:42:00,
2013-05-31 13:52:00,76.0,59.0,-100.00,SW,221,10.0,17.0,55,0.00,,,0.83,1031.000000,,2013-05-31 18:52:00,
2013-05-31 14:02:00,76.0,59.0,-100.00,SW,221,10.0,17.0,55,0.00,,,0.83,1031.000000,,2013-05-31 19:02:00,
2013-05-31 14:11:00,76.0,59.0,-100.00,SW,221,10.0,17.0,55,0.00,,,0.83,1031.000000,,2013-05-31 19:11:00,
2013-05-31 14:32:00,79.0,58.0,-100.00,SSW,208,8.0,18.0,49,0.00,,,0.83,921.000000,,2013-05-31 19:32:00,
2013-05-31 14:42:00,79.0,58.0,-100.00,SSW,208,8.0,18.0,49,0.00,,,0.83,921.000000,,2013-05-31 19:42:00,
2013-05-31 14:52:00,79.0,58.0,-100.00,SSW,208,8.0,18.0,49,0.00,,,0.83,921.000000,,2013-05-31 19:52:00,
2013-05-31 15:02:00,79.0,58.0,-100.00,SSW,208,8.0,18.0,49,0.00,,,0.83,921.000000,,2013-05-31 20:02:00,
2013-05-31 15:11:00,79.0,58.0,-100.00,SSW,208,8.0,18.0,49,0.00,,,0.83,921.000000,,2013-05-31 20:11:00,
2013-05-31 15:32:00,77.0,62.0,-100.00,SSW,193,8.0,19.0,60,0.00,,,0.83,772.000000,,2013-05-31 20:32:00,
2013-05-31 15:42:00,77.0,62.0,-100.00,SSW,193,8.0,19.0,60,0.00,,,0.83,772.000000,,2013-05-31 20:42:00,
2013-05-31 15:52:00,77.0,62.0,-100.00,SSW,193,8.0,19.0,60,0.00,,,0.83,772.000000,,2013-05-31 20:52:00,
2013-05-31 16:01:00,77.0,62.0,-100.00,SSW,193,8.0,19.0,60,0.00,,,0.83,772.000000,,2013-05-31 21:01:00,
2013-05-31 16:11:00,77.0,62.0,-100.00,SSW,193,8.0,19.0,60,0.00,,,0.83,772.000000,,2013-05-31 21:11:00,
2013-05-31 16:12:00,77.0,61.0,-100.00,SSW,205,8.0,17.0,57,0.00,,,0.83,430.000000,,2013-05-31 21:12:00,
2013-05-31 16:33:00,77.0,61.0,-100.00,SSW,205,8.0,17.0,57,0.00,,,0.83,430.000000,,2013-05-31 21:33:00,
2013-05-31 16:43:00,77.0,61.0,-100.00,SSW,205,8.0,17.0,57,0.00,,,0.83,430.000000,,2013-05-31 21:43:00,
2013-05-31 16:54:00,77.0,61.0,-100.00,SSW,205,8.0,17.0,57,0.00,,,0.83,430.000000,,2013-05-31 21:54:00,
2013-05-31 17:02:00,77.0,61.0,-100.00,SSW,205,8.0,17.0,57,0.00,,,0.83,430.000000,,2013-05-31 22:02:00,
2013-05-31 17:12:00,76.0,62.0,-100.00,SE,144,8.0,15.0,62,0.00,,,0.83,619.000000,,2013-05-31 22:12:00,
2013-05-31 17:33:00,76.0,62.0,-100.00,SE,144,8.0,15.0,62,0.00,,,0.83,619.000000,,2013-05-31 22:33:00,
2013-05-31 17:42:00,76.0,62.0,-100.00,SE,144,8.0,15.0,62,0.00,,,0.83,619.000000,,2013-05-31 22:42:00,
2013-05-31 17:53:00,76.0,62.0,-100.00,SE,144,8.0,15.0,62,0.00,,,0.83,619.000000,,2013-05-31 22:53:00,
2013-05-31 18:02:00,76.0,62.0,-100.00,SE,144,8.0,15.0,62,0.00,,,0.83,619.000000,,2013-05-31 23:02:00,
2013-05-31 18:32:00,73.0,62.0,-100.00,SSE,166,9.0,18.0,69,0.00,,,0.83,411.000000,,2013-05-31 23:32:00,
2013-05-31 18:42:00,73.0,62.0,-100.00,SSE,166,9.0,18.0,69,0.00,,,0.83,411.000000,,2013-05-31 23:42:00,
2013-05-31 18:52:00,73.0,62.0,-100.00,SSE,166,9.0,18.0,69,0.00,,,0.83,411.000000,,2013-05-31 23:52:00,
2013-05-31 19:01:00,73.0,62.0,-100.00,SSE,166,9.0,18.0,69,0.00,,,0.83,411.000000,,2013-06-01 00:01:00,
2013-05-31 19:11:00,73.0,62.0,-100.00,SSE,166,9.0,18.0,69,0.00,,,0.83,411.000000,,2013-06-01 00:11:00,
2013-05-31 19:32:00,73.0,63.0,-100.00,SSE,160,7.0,16.0,71,0.00,,,0.83,227.000000,,2013-06-01 00:32:00,
2013-05-31 19:42:00,73.0,63.0,-100.00,SSE,160,7.0,16.0,71,0.00,,,0.83,227.000000,,2013-06-01 00:42:00,
2013-05-31 19:52:00,73.0,63.0,-100.00,SSE,160,7.0,16.0,71,0.00,,,0.83,227.000000,,2013-06-01 00:52:00,
2013-05-31 20:01:00,73.0,63.0,-100.00,SSE,160,7.0,16.0,71,0.00,,,0.83,227.000000,,2013-06-01 01:01:00,
2013-05-31 20:11:00,73.0,63.0,-100.00,SSE,160,7.0,16.0,71,0.00,,,0.83,227.000000,,2013-06-01 01:11:00,
2013-05-31 20:32:00,69.0,61.0,-100.00,SSE,156,5.0,11.0,77,0.00,,,0.83,48.000000,,2013-06-01 01:32:00,
2013-05-31 20:42:00,69.0,61.0,-100.00,SSE,156,5.0,11.0,77,0.00,,,0.83,48.000000,,2013-06-01 01:42:00,
2013-05-31 20:52:00,69.0,61.0,-100.00,SSE,156,5.0,11.0,77,0.00,,,0.83,48.000000,,2013-06-01 01:52:00,
2013-05-31 21:01:00,69.0,61.0,-100.00,SSE,156,5.0,11.0,77,0.00,,,0.83,48.000000,,2013-06-01 02:01:00,
2013-05-31 21:11:00,69.0,61.0,-100.00,SSE,156,5.0,11.0,77,0.00,,,0.83,48.000000,,2013-06-01 02:11:00,
2013-05-31 21:32:00,66.0,61.0,-100.00,South,177,5.0,10.0,83,0.00,,,0.83,2.000000,,2013-06-01 02:32:00,
2013-05-31 21:42:00,66.0,61.0,-100.00,South,177,5.0,10.0,83,0.00,,,0.83,2.000000,,2013-06-01 02:42:00,
2013-05-31 21:52:00,66.0,61.0,-100.00,South,177,5.0,10.0,83,0.00,,,0.83,2.000000,,2013-06-01 02:52:00,
2013-05-31 22:01:00,66.0,61.0,-100.00,South,177,5.0,10.0,83,0.00,,,0.83,2.000000,,2013-06-01 03:01:00,
2013-05-31 22:11:00,66.0,61.0,-100.00,South,177,5.0,10.0,83,0.00,,,0.83,2.000000,,2013-06-01 03:11:00,
2013-05-31 22:12:00,64.0,60.0,-100.00,South,180,4.0,9.0,87,0.00,,,0.23,0.000000,,2013-06-01 03:12:00,
2013-05-31 22:33:00,64.0,60.0,-100.00,South,180,4.0,9.0,87,0.00,,,0.23,0.000000,,2013-06-01 03:33:00,
2013-05-31 22:43:00,64.0,60.0,-100.00,South,180,4.0,9.0,87,0.00,,,0.23,0.000000,,2013-06-01 03:43:00,
2013-05-31 22:53:00,64.0,60.0,-100.00,South,180,4.0,9.0,87,0.00,,,0.23,0.000000,,2013-06-01 03:53:00,
2013-05-31 23:03:00,64.0,60.0,-100.00,South,180,4.0,9.0,87,0.00,,,0.23,0.000000,,2013-06-01 04:03:00,
2013-05-31 23:12:00,63.0,59.0,-100.00,SSW,196,4.0,10.0,87,0.00,,,0.00,0.000000,,2013-06-01 04:12:00,
2013-05-31 23:33:00,63.0,59.0,-100.00,SSW,196,4.0,10.0,87,0.00,,,0.00,0.000000,,2013-06-01 04:33:00,
2013-05-31 23:42:00,63.0,59.0,-100.00,SSW,196,4.0,10.0,87,0.00,,,0.00,0.000000,,2013-06-01 04:42:00,
2013-05-31 23:53:00,63.0,59.0,-100.00,SSW,196,4.0,10.0,87,0.00,,,0.00,0.000000,,2013-06-01 04:53:00,